4XCWM LLHZ-LLHA

Flight info

Callsign 4XCWM
Flight time 0h 21m
Altitude 2500
Route BAZRA DEROR SHARO HADRA FRDIS BOREN HOTRM DAROM GALIM
Aircraft C182/L-S/5100

Departure

Time 2026-04-25 16:08
Airport Herzliya Airport (LLHZ)

Arrival

Time 2026-04-25 16:29
Airport Uri Michaeli Haifa International Airport (LLHA)
Time Latitude Longitude Altitude Speed Heading
2026-04-25 16:04 32.17932 34.83607 112 ft 0 kts 20°
2026-04-25 16:05 32.17931 34.83672 115 ft 15 kts 110°
2026-04-25 16:06 32.17895 34.83794 120 ft 14 kts 109°
2026-04-25 16:06 32.17882 34.83837 121 ft 1 kts 108°
2026-04-25 16:06 32.17916 34.83844 125 ft 10 kts 287°
2026-04-25 16:06 32.17920 34.83830 125 ft 0 kts 289°
2026-04-25 16:07 32.18010 34.83526 109 ft 68 kts 288°
2026-04-25 16:07 32.18217 34.82907 257 ft 88 kts 310°
2026-04-25 16:08 32.18849 34.82968 431 ft 106 kts 22°
2026-04-25 16:08 32.19383 34.83500 732 ft 107 kts 91°
2026-04-25 16:08 32.19048 34.84409 746 ft 133 kts 113°
2026-04-25 16:08 32.18750 34.85481 869 ft 143 kts 103°
2026-04-25 16:09 32.18638 34.86680 888 ft 151 kts 93°
2026-04-25 16:09 32.18637 34.87944 920 ft 153 kts 87°
2026-04-25 16:09 32.19247 34.88743 1078 ft 153 kts 360°
2026-04-25 16:09 32.20352 34.88514 846 ft 167 kts 352°
2026-04-25 16:10 32.21502 34.88304 864 ft 164 kts 355°
2026-04-25 16:10 32.22623 34.88340 891 ft 160 kts
2026-04-25 16:10 32.23725 34.88551 909 ft 161 kts 13°
2026-04-25 16:10 32.24814 34.88797 947 ft 161 kts 11°
2026-04-25 16:11 32.25939 34.89028 841 ft 167 kts 12°
2026-04-25 16:11 32.27015 34.89285 1107 ft 146 kts 13°
2026-04-25 16:11 32.27944 34.89472 1060 ft 117 kts 11°
2026-04-25 16:11 32.28811 34.89633 974 ft 143 kts 11°
2026-04-25 16:12 32.29849 34.89812 997 ft 151 kts 12°
2026-04-25 16:12 32.30861 34.90071 1158 ft 147 kts 14°
2026-04-25 16:12 32.31889 34.90290 1101 ft 157 kts 12°
2026-04-25 16:12 32.32630 34.90425 981 ft 165 kts
2026-04-25 16:13 32.34106 34.90560 1166 ft 151 kts
2026-04-25 16:13 32.35201 34.90630 993 ft 165 kts
2026-04-25 16:13 32.36342 34.90789 980 ft 162 kts
2026-04-25 16:13 32.37441 34.90771 980 ft 162 kts 356°
2026-04-25 16:14 32.38562 34.90534 884 ft 165 kts 350°
2026-04-25 16:14 32.39682 34.90309 866 ft 163 kts 354°
2026-04-25 16:14 32.40818 34.90322 816 ft 163 kts
2026-04-25 16:14 32.41913 34.90532 909 ft 156 kts 11°
2026-04-25 16:15 32.43004 34.90730 855 ft 162 kts 11°
2026-04-25 16:15 32.44126 34.90941 808 ft 161 kts
2026-04-25 16:15 32.45239 34.90908 838 ft 160 kts 358°
2026-04-25 16:15 32.46302 34.91202 811 ft 159 kts 20°
2026-04-25 16:16 32.47347 34.91622 759 ft 160 kts 19°
2026-04-25 16:16 32.48359 34.92017 934 ft 151 kts 19°
2026-04-25 16:16 32.49362 34.92378 992 ft 152 kts 17°
2026-04-25 16:16 32.50396 34.92672 1000 ft 155 kts 12°
2026-04-25 16:17 32.51462 34.92833 1033 ft 155 kts
2026-04-25 16:17 32.52563 34.92896 990 ft 161 kts
2026-04-25 16:17 32.53687 34.92903 973 ft 162 kts
2026-04-25 16:17 32.54811 34.92962 986 ft 159 kts
2026-04-25 16:18 32.55844 34.93202 1145 ft 151 kts 14°
2026-04-25 16:18 32.56177 34.93287 1215 ft 149 kts 14°
2026-04-25 16:18 32.57832 34.93774 1453 ft 146 kts 16°
2026-04-25 16:18 32.58826 34.94047 1514 ft 148 kts 15°
2026-04-25 16:19 32.59811 34.94375 1662 ft 145 kts 24°
2026-04-25 16:19 32.60729 34.94874 1618 ft 155 kts 24°
2026-04-25 16:19 32.61738 34.95311 1577 ft 158 kts 20°
2026-04-25 16:20 32.63993 34.95761 1284 ft 169 kts
2026-04-25 16:20 32.65164 34.95800 1250 ft 165 kts
2026-04-25 16:20 32.67339 34.95846 1443 ft 156 kts
2026-04-25 16:21 32.68453 34.95970 1350 ft 163 kts
2026-04-25 16:21 32.69580 34.96096 1313 ft 161 kts
2026-04-25 16:21 32.70681 34.95971 1331 ft 161 kts 346°
2026-04-25 16:21 32.71727 34.95483 1287 ft 162 kts 340°
2026-04-25 16:22 32.72776 34.94969 1182 ft 163 kts 341°
2026-04-25 16:22 32.73865 34.94651 1147 ft 162 kts 353°
2026-04-25 16:22 32.74962 34.94583 1183 ft 155 kts
2026-04-25 16:22 32.76025 34.94651 1219 ft 153 kts
2026-04-25 16:23 32.77096 34.94771 1149 ft 156 kts
2026-04-25 16:23 32.78170 34.94906 1251 ft 149 kts
2026-04-25 16:23 32.79200 34.94960 1320 ft 150 kts
2026-04-25 16:23 32.80243 34.94944 1393 ft 150 kts
2026-04-25 16:24 32.81255 34.94995 1590 ft 143 kts
2026-04-25 16:24 32.82203 34.95289 1735 ft 139 kts 24°
2026-04-25 16:24 32.83040 34.95911 1492 ft 139 kts 47°
2026-04-25 16:24 32.83476 34.96866 1324 ft 125 kts 65°
2026-04-25 16:25 32.83599 34.97836 1352 ft 122 kts 85°
2026-04-25 16:25 32.83589 34.98523 1368 ft 128 kts 88°
2026-04-25 16:25 32.83510 34.99990 1308 ft 137 kts 96°
2026-04-25 16:25 32.83336 35.01094 1387 ft 133 kts 102°
2026-04-25 16:26 32.83270 35.02166 1437 ft 133 kts 90°
2026-04-25 16:26 32.83315 35.03272 1464 ft 134 kts 85°
2026-04-25 16:26 32.83389 35.04386 1484 ft 136 kts 85°
2026-04-25 16:26 32.83330 35.05502 1443 ft 140 kts 109°
2026-04-25 16:27 32.82641 35.06356 1209 ft 154 kts 153°
2026-04-25 16:27 32.81623 35.06798 975 ft 156 kts 162°
2026-04-25 16:27 32.80659 35.07190 961 ft 136 kts 162°
2026-04-25 16:27 32.79824 35.07484 908 ft 121 kts 168°
2026-04-25 16:28 32.79017 35.07532 878 ft 111 kts 189°
2026-04-25 16:28 32.78390 35.07110 890 ft 109 kts 234°
2026-04-25 16:28 32.78303 35.06195 702 ft 123 kts 282°
2026-04-25 16:28 32.78766 35.05418 523 ft 112 kts 323°
2026-04-25 16:29 32.79415 35.05042 402 ft 94 kts 340°
2026-04-25 16:29 32.80002 35.04802 220 ft 87 kts 341°
2026-04-25 16:29 32.80527 35.04583 48 ft 67 kts 342°
2026-04-25 16:29 32.80850 35.04447 22 ft 30 kts 340°
2026-04-25 16:30 32.80892 35.04429 23 ft 4 kts 340°
2026-04-25 16:30 32.81013 35.04377 22 ft 28 kts 343°
2026-04-25 16:30 32.81193 35.04316 23 ft 21 kts 20°
2026-04-25 16:30 32.81212 35.04304 24 ft 12 kts 315°
2026-04-25 16:31 32.81302 35.04259 24 ft 17 kts 340°
2026-04-25 16:31 32.81439 35.04202 25 ft 21 kts 347°
2026-04-25 16:31 32.81499 35.04259 25 ft 9 kts 67°
2026-04-25 16:31 32.81525 35.04335 22 ft 9 kts 63°
2026-04-25 16:32 32.81547 35.04349 22 ft 0 kts 327°
2026-04-25 16:32 32.81547 35.04348 22 ft 0 kts 327°
2026-04-25 16:32 32.81553 35.04366 22 ft 5 kts 46°
2026-04-25 16:32 32.81558 35.04363 22 ft 0 kts 248°
2026-04-25 16:33 32.81557 35.04361 22 ft 0 kts 246°